Weather History for Evergreen, AL

Change the Weather History Date:

Monday, January 28, 2013

  Actual Average (KPRN) Record (KPRN)
Temperature  
Mean Temperature 63 °F -  
Max Temperature 73 °F 59 °F 77 °F (1957)
Min Temperature 53 °F 35 °F 12 °F (1986)
Degree Days  
Heating Degree Days 2    
Growing Degree Days 13 (Base 50)    
Moisture  
Dew Point 55 °F    
Average Humidity 78    
Maximum Humidity 93    
Minimum Humidity 57    
Precipitation  
Precipitation 0.00 in - - ()
Sea Level Pressure  
Sea Level Pressure 30.27 in    
Wind  
Wind Speed 4 mph (SE)    
Max Wind Speed 10 mph    
Max Gust Speed -    
Visibility 9 miles    
Events      
Averages and records for this station are not official NWS values.
T = Trace of Precipitation, MM = Missing Value Source: NWS Daily Summary

Daily Weather History Graph

Daily Weather History Graph

Search for Another Location

Airport:

Trip Planner

Search our weather history database for the weather conditions in past years. The results will help you decide how hot, cold, wet, or windy it might be!

Date:

Astronomy

Jan. 28, 2013 Rise Set
Actual Time 6:42 AM CST 5:19 PM CST
Civil Twilight 6:17 AM CST 5:45 PM CST
Nautical Twilight 5:48 AM CST 6:14 PM CST
Astronomical Twilight 5:19 AM CST 6:43 PM CST
Moon 7:03 PM CST (1/28) 7:17 AM CST (1/28)
Length of Visible Light 11h 28m
Length of Day
10h 36m
Full, 98% of the Moon is Illuminated
Jan 28
Full
Feb 3
Last Quarter
Feb 10
New
Feb 17
First Quarter
Feb 25
Full

Hourly Weather History & Observations

Time (CST) Temp. Dew Point Humidity Pressure Visibility Wind Dir Wind Speed Gust Speed Precip Events Conditions
12:53 AM 53.1 °F 50.0 °F 89% 30.31 in 6.0 mi Calm Calm - N/A   Mostly Cloudy
1:51 AM 53.6 °F 48.2 °F 82% 30.30 in 10.0 mi ESE 3.5 mph - N/A   Mostly Cloudy
1:53 AM 55.0 °F 48.9 °F 80% 30.30 in 10.0 mi ESE 4.6 mph - N/A   Mostly Cloudy
2:53 AM 54.0 °F 48.9 °F 83% 30.30 in 10.0 mi Calm Calm - N/A   Overcast
3:53 AM 55.9 °F 50.0 °F 80% 30.28 in 10.0 mi ESE 6.9 mph - N/A   Overcast
4:53 AM 57.0 °F 52.0 °F 83% 30.28 in 9.0 mi SE 6.9 mph - N/A   Overcast
5:53 AM 57.9 °F 54.0 °F 87% 30.30 in 8.0 mi Calm Calm - N/A   Overcast
6:53 AM 57.9 °F 54.0 °F 87% 30.31 in 8.0 mi East 6.9 mph - N/A   Overcast
7:06 AM 57.2 °F 53.6 °F 88% 30.32 in 8.0 mi ESE 6.9 mph - N/A   Overcast
7:53 AM 59.0 °F 55.0 °F 87% 30.33 in 7.0 mi East 6.9 mph - N/A   Overcast
8:53 AM 61.0 °F 55.0 °F 81% 30.33 in 9.0 mi East 9.2 mph - N/A   Overcast
9:53 AM 62.1 °F 55.0 °F 78% 30.34 in 10.0 mi SE 10.4 mph - N/A   Overcast
10:53 AM 66.0 °F 55.9 °F 70% 30.33 in 10.0 mi SE 6.9 mph - N/A   Scattered Clouds
11:37 AM 68.0 °F 55.4 °F 64% 30.32 in 10.0 mi East 5.8 mph - N/A   Mostly Cloudy
11:53 AM 68.0 °F 55.9 °F 65% 30.31 in 10.0 mi ESE 6.9 mph - N/A   Mostly Cloudy
12:04 PM 68.0 °F 55.4 °F 64% 30.30 in 10.0 mi SE 8.1 mph - N/A   Mostly Cloudy
12:53 PM 71.1 °F 55.9 °F 59% 30.27 in 10.0 mi South 6.9 mph - N/A   Clear
1:53 PM 72.0 °F 57.0 °F 59% 30.25 in 10.0 mi South 8.1 mph - N/A   Partly Cloudy
2:53 PM 73.0 °F 57.0 °F 57% 30.24 in 10.0 mi SE 6.9 mph - N/A   Overcast
3:53 PM 72.0 °F 57.9 °F 61% 30.23 in 10.0 mi SSE 5.8 mph - N/A   Scattered Clouds
4:53 PM 70.0 °F 59.0 °F 68% 30.23 in 10.0 mi SE 5.8 mph - N/A   Partly Cloudy
5:53 PM 64.9 °F 57.9 °F 78% 30.23 in 10.0 mi SE 3.5 mph - N/A   Clear
6:53 PM 61.0 °F 57.9 °F 90% 30.23 in 9.0 mi SSE 3.5 mph - N/A   Clear
7:53 PM 57.9 °F 55.9 °F 93% 30.23 in 6.0 mi Calm Calm - N/A   Clear
8:53 PM 59.0 °F 55.0 °F 87% 30.23 in 5.0 mi Calm Calm - N/A   Mostly Cloudy
9:53 PM 64.0 °F 60.1 °F 87% 30.22 in 9.0 mi SSE 6.9 mph - N/A   Overcast
10:53 PM 66.0 °F 62.1 °F 87% 30.21 in 10.0 mi SSE 8.1 mph - N/A   Overcast
11:31 PM 66.2 °F 62.6 °F 88% 30.21 in 8.0 mi SSE 4.6 mph - N/A   Overcast
11:53 PM 66.0 °F 62.1 °F 87% 30.20 in 7.0 mi SSE 6.9 mph - N/A   Overcast